SCP
0 0 0 0 0 0 0 0 0 0 0 0 0 0 0 0 0 0 0 0 0 0 0 0 0 0 0 0 0 0 0 0 0 0 0 0 0 0 0 0 0 0 0 0 0 0 0 0 0
0 0 0 0 0 0 0 0 0 0 0 0 0 0 0 0 0 0 0 0 0 0 0 0 0 0 0 0 0 0 0 0 0 0 0 0 0 0 0 0 0 0 0 0 0 0 0 0 0
0 0 0 0 0 0 0 0 0 0 0 0 0 0 0 0 0 0 0 0 0 0 0 0 0 0 0 0 0 0 0 0 0 0 0 0 0 0 0 0 0 0 0 0 0 0 0 0 0
0 0 0 0 0 0 0 0 0 0 0 0 0 0 0 0 0 0 0 0 0 0 0 0 0 0 0 0 0 0 0 0 0 0 0 0 0 0 0 0 0 0 0 0 0 0 0 0 0
0 0 0 0 0 0 0 0 0 0 0 0 0 0 0 0 0 0 0 0 0 0 0 0 0 0 0 0 0 0 0 0 0 0 0 0 0 0 0 0 0 0 0 0 0 0 0 0 0
0 0 0 0 0 0 0 0 0 0 0 0 0 0 0 0 0 0 0 0 0 0 0 0 0 0 0 0 0 0 0 0 0 0 0 0 0 0 0 0 0 0 0 0 0 0 0 0 0
0 0 0 0 0 0 0 0 0 0 0 0 0 0 0 0 0 0 0 0 0 0 0 0 0 0 0 0 0 0 0 0 0 0 0 0 0 0 0 0 0 0 0 0 0 0 0 0 0
0 0 0 0 0 0 0 0 0 0 0 0 0 0 0 0 0 0 0 0 0 0 0 0 0 0 0 0 0 0 0 0 0 0 0 0 0 0 0 0 0 0 0 0 0 0 0 0 0
0 0 0 0 0 0 0 0 0 0 0 0 0 0 0 0 0 0 0 0 0 0 0 0 0 0 0 0 0 0 0 0 0 0 0 0 0 0 0 0 0 0 0 0 0 0 0 0 0
0 0 0 0 0 0 0 0 0 0 0 0 0 0 0 0 0 0 0 0 0 0 0 0 0 0 0 0 0 0 0 0 0 0 0 0 0 0 0 0 0 0 0 0 0 0 0 0 0
0 0 0 0 0 0 0 0 0 0 0 0 0 0 0 0 0 0 0 0 0 0 0 0 0 0 0 0 0 0 0 0 0 0 0 0 0 0 0 0 0 0 0 0 0 0 0 0 0
0 0 0 0 0 0 0 0 0 0 0 0 0 0 0 0 0 0 0 0 0 0 0 0 0 0 0 0 0 0 0 0 0 0 0 0 0 0 0 0 0 0 0 0 0 0 0 0 0
0 0 0 0 0 0 0 0 0 0 0 0 0 0 0 0 0 0 0 0 0 0 0 0 0 0 0 0 0 0 0 0 0 0 0 0 0 0 0 0 0 0 0 0 0 0 0 0 0
0 0 0 0 0 0 0 0 0 0 0 0 0 0 0 0 0 0 0 0 0 0 0 0 0 0 0 0 0 0 0 0 0 0 0 0 0 0 0 0 0 0 0 0 0 0 0 0 0
0 0 0 0 0 0 0 0 0 0 0 0 0 0 0 0 0 0 0 0 0 0 0 0 0 0 0 0 0 0 0 0 0 0 0 0 0 0 0 0 0 0 0 0 0 0 0 0 0
0 0 0 0 0 0 0 0 0 0 0 0 0 0 0 0 0 0 0 0 0 0 0 0 0 0 0 0 0 0 0 0 0 0 0 0 0 0 0 0 0 0 0 0 0 0 0 0 0
0 0 0 0 0 0 0 0 0 0 0 0 0 0 0 0 0 0 0 0 0 0 0 0 0 0 0 0 0 0 0 0 0 0 0 0 0 0 0 0 0 0 0 0 0 0 0 0 0
0 0 0 0 0 0 0 0 0 0 0 0 0 0 0 0 0 0 0 0 0 0 0 0 0 0 0 0 0 0 0 0 0 0 0 0 0 0 0 0 0 0 0 0 0 0 0 0 0
0 0 0 0 0 0 0 0 0 0 0 0 0 0 0 0 0 0 0 0 0 0 0 0 0 0 0 0 0 0 0 0 0 0 0 0 0 0 0 0 0 0 0 0 0 0 0 0 0
0 0 0 0 0 0 0 0 0 0 0 0 0 0 0 0 0 0 0 0 0 0 0 0 0 0 0 0 0 0 0 0 0 0 0 0 0 0 0 0 0 0 0 0 0 0 0 0 0
0 0 0 0 0 0 0 0 0 0 0 0 0 0 0 0 0 0 0 0 0 0 0 0 0 0 0 0 0 0 0 0 0 0 0 0 0 0 0 0 0 0 0 0 0 0 0 0 0
0 0 0 0 0 0 0 0 0 0 0 0 0 0 0 0 0 0 0 0 0 0 0 0 0 0 0 0 0 0 0 0 0 0 0 0 0 0 0 0 0 0 0 0 0 0 0 0 0
0 0 0 0 0 0 0 0 0 0 0 0 0 0 0 0 0 0 0 0 0 0 0 0 0 0 0 0 0 0 0 0 0 0 0 0 0 0 0 0 0 0 0 0 0 0 0 0 0
0 0 0 0 0 0 0 0 0 0 0 0 0 0 0 0 0 0 0 0 0 0 0 0 0 0 0 0 0 0 0 0 0 0 0 0 0 0 0 0 0 0 0 0 0 0 0 0 0
0 0 0 0 0 0 0 0 0 0 0 0 0 0 0 0 0 0 0 0 0 0 0 0 0 0 0 0 0 0 0 0 0 0 0 0 0 0 0 0 0 0 0 0 0 0 0 0 0
0 0 0 0 0 0 0 0 0 0 0 0 0 0 0 0 0 0 0 0 0 0 0 0 0 0 0 0 0 0 0 0 0 0 0 0 0 0 0 0 0 0 0 0 0 0 0 0 0
0 0 0 0 0 0 0 0 0 0 0 0 0 0 0 0 0 0 0 0 0 0 0 0 0 0 0 0 0 0 0 0 0 0 0 0 0 0 0 0 0 0 0 0 0 0 0 0 0
0 0 0 0 0 0 0 0 0 0 0 0 0 0 0 0 0 0 0 0 0 0 0 0 0 0 0 0 0 0 0 0 0 0 0 0 0 0 0 0 0 0 0 0 0 0 0 0 0
0 0 0 0 0 0 0 0 0 0 0 0 0 0 0 0 0 0 0 0 0 0 0 0 0 0 0 0 0 0 0 0 0 0 0 0 0 0 0 0 0 0 0 0 0 0 0 0 0
0 0 0 0 0 0 0 0 0 0 0 0 0 0 0 0 0 0 0 0 0 0 0 0 0 0 0 0 0 0 0 0 0 0 0 0 0 0 0 0 0 0 0 0 0 0 0 0 0
Wind_Speed
3 2 2 2 2 3 6 5 5 5 5 6 6 5 6 7 7 7 5 3 4 4 4 6 7 7 8 8 9 9 9 9 9 9 9 9 9 10 10 10 10 10 10 10 9 10 10 10 10
1 1 2 2 1 5 7 5 6 6 6 5 5 5 6 7 7 6 5 4 4 5 5 7 7 7 8 8 9 9 10 9 9 9 9 9 9 10 10 10 10 10 10 10 9 10 9 9 10
2 1 1 0 2 5 7 6 7 7 5 3 4 5 5 6 5 5 5 5 5 5 5 8 6 7 7 8 9 9 9 9 9 9 9 9 10 10 9 9 10 10 10 10 9 9 10 10 11
2 1 1 3 7 6 6 6 6 7 5 3 4 6 6 6 4 6 7 5 6 6 6 8 6 7 7 8 8 8 8 8 9 9 9 10 10 10 10 10 9 9 9 9 9 9 9 10 11
1 1 4 6 7 6 5 4 4 5 5 5 4 7 7 6 6 7 7 5 5 6 6 8 7 7 7 8 8 8 8 8 9 9 9 10 10 10 10 10 9 9 9 9 9 9 9 10 10
1 2 5 7 7 6 5 4 5 5 6 6 5 7 7 6 7 7 7 6 6 6 6 7 8 7 7 7 8 8 7 8 9 9 10 10 10 10 10 10 10 10 10 10 9 9 9 10 10
1 2 5 8 7 6 5 3 4 5 6 5 4 6 7 7 7 7 6 6 5 5 5 5 6 7 8 8 8 8 8 9 9 9 10 10 10 10 10 10 10 10 11 11 10 10 9 10 10
0 3 7 6 6 6 5 4 3 3 5 5 2 4 7 8 8 7 6 5 5 5 5 5 5 5 5 7 8 8 9 9 9 9 9 8 8 9 9 9 11 11 12 12 11 11 11 10 10
2 4 6 6 5 5 5 5 4 3 5 4 3 5 7 10 9 8 6 6 5 5 4 5 5 5 4 5 7 7 8 7 6 8 7 4 5 7 7 11 11 11 12 11 11 11 10 9 9
2 3 5 3 3 5 5 5 5 5 6 5 6 7 8 10 9 8 6 6 6 5 5 4 4 4 4 4 5 4 5 5 4 5 5 4 5 5 6 9 10 10 9 10 9 7 6 3 5
2 3 4 3 3 4 5 5 4 5 4 4 6 8 9 9 8 6 5 5 5 5 4 4 4 4 5 4 4 3 3 3 4 5 5 4 4 4 4 4 5 5 5 5 6 4 4 5 5
4 4 3 3 3 4 4 4 4 3 1 1 4 8 9 9 8 6 5 5 5 4 4 4 3 4 4 5 4 3 3 3 3 3 5 4 3 3 4 3 3 3 3 4 3 3 5 5 5
4 3 3 3 4 3 4 3 3 2 1 3 6 8 9 8 7 6 5 5 5 5 4 4 3 3 4 4 3 3 3 3 3 3 3 4 3 3 4 3 3 3 3 3 3 3 5 5 5
4 4 4 4 4 3 4 3 2 1 2 5 7 7 8 7 7 6 5 5 5 5 4 5 3 3 3 3 3 3 3 3 2 2 3 4 3 3 3 4 3 3 3 3 3 4 3 3 4
4 4 4 2 2 2 4 3 2 2 4 6 6 6 6 6 6 5 5 5 5 4 4 5 4 3 3 3 3 2 2 2 2 2 2 3 3 3 3 3 3 3 3 3 3 4 3 3 3
4 4 4 3 2 3 5 3 2 3 5 6 6 6 6 6 6 5 4 4 4 4 4 5 4 4 4 3 2 2 2 2 2 2 2 3 3 3 3 2 2 3 2 2 2 2 2 2 2
5 4 4 4 3 3 5 3 2 4 6 6 6 7 7 6 6 5 5 4 4 4 5 5 5 5 4 4 3 2 2 2 1 2 2 1 2 2 2 2 2 2 2 2 2 2 1 2 2
5 4 4 3 3 4 5 4 2 5 6 6 6 7 7 7 6 6 5 4 5 5 5 5 5 4 5 3 3 2 2 2 1 1 1 1 1 2 2 2 2 2 1 1 1 2 1 1 1
3 4 4 2 2 4 6 6 5 5 7 7 7 8 8 7 7 6 5 5 5 5 5 5 5 5 4 3 3 2 2 2 2 1 2 2 1 1 1 1 1 1 1 1 1 1 1 1 0
6 5 4 2 2 4 5 8 6 5 7 8 8 8 8 8 7 7 6 6 6 6 6 6 6 5 4 3 2 2 2 1 2 1 2 2 1 1 1 2 2 2 1 2 1 1 1 0 1
6 6 5 4 3 5 6 7 6 5 7 7 8 8 8 8 8 8 8 7 7 6 6 5 6 6 5 4 2 2 2 2 2 2 2 2 2 1 2 2 2 2 2 2 2 2 2 1 1
6 4 5 5 6 4 4 5 3 4 6 7 8 9 9 9 9 8 8 8 7 7 6 6 6 5 5 5 4 4 3 3 2 2 2 3 2 2 2 2 2 3 2 2 3 3 2 2 2
4 2 4 6 7 7 6 7 3 4 5 6 7 8 9 9 9 9 8 8 7 7 6 5 5 5 4 4 4 4 4 2 2 2 3 3 2 3 3 3 3 3 2 2 2 2 2 2 2
3 4 5 6 6 8 5 7 4 3 4 4 6 7 8 9 9 9 8 7 6 6 6 5 5 5 5 5 5 5 4 4 3 3 3 2 2 2 3 3 3 3 2 3 3 3 3 3 2
6 6 5 5 6 4 2 6 5 1 2 4 4 5 6 8 9 9 9 8 7 7 6 6 6 6 6 6 6 5 5 5 4 4 4 3 3 3 4 4 4 3 3 3 3 4 4 4 4
6 7 6 4 3 2 3 6 2 1 2 3 4 4 5 7 8 8 8 8 7 7 7 7 7 7 6 6 6 5 5 3 3 4 4 4 3 3 4 4 4 4 4 4 4 4 4 4 4
6 6 5 7 6 7 4 4 3 2 2 3 3 4 5 6 7 8 8 8 7 7 7 7 7 7 7 6 6 5 5 5 4 5 4 4 4 3 4 5 5 5 5 4 4 4 4 4 4
4 4 5 6 5 6 5 6 4 2 2 2 3 5 5 5 7 7 7 7 6 6 6 6 7 7 6 6 6 5 5 5 5 5 5 5 5 4 4 5 5 5 5 5 4 4 4 5 4
5 6 6 5 5 5 5 2 0 2 2 2 3 4 5 6 6 6 6 6 5 5 5 5 6 7 6 6 6 6 5 5 5 5 5 5 5 5 5 5 5 5 5 5 5 5 5 5 5
7 7 8 7 7 7 7 4 2 1 2 2 2 2 4 5 5 5 5 5 5 5 5 5 5 6 6 6 6 6 5 5 6 6 6 6 5 5 5 5 5 5 5 5 5 5 5 5 5
Wind_Direction
177 179 212 233 206 107 88 89 95 100 82 68 66 66 63 47 32 62 79 84 77 82 78 92 79 78 76 75 77 77 77 75 77 80 82 85 87 89 87 85 85 83 81 80 79 77 77 77 76
143 177 223 241 191 118 97 100 101 83 94 102 83 77 75 69 57 83 101 96 93 83 80 79 79 77 79 77 77 78 81 80 78 80 81 83 85 87 87 86 86 85 81 80 78 77 78 77 76
132 265 284 182 104 98 107 106 102 101 104 102 90 64 56 70 77 88 94 111 101 86 80 82 78 82 82 82 82 81 84 85 83 82 80 81 82 84 85 85 85 85 84 80 76 75 76 77 77
210 191 180 124 105 86 101 111 119 124 112 89 98 92 82 64 72 93 110 112 101 92 85 86 80 84 84 83 84 86 85 84 83 82 80 80 80 81 82 82 84 87 85 81 78 76 74 75 76
204 193 138 124 108 101 102 107 137 123 108 102 100 97 96 85 94 108 116 110 98 92 87 88 82 83 84 81 80 83 85 81 81 81 81 82 81 79 80 81 82 85 84 80 78 77 75 75 75
172 186 150 130 119 114 120 130 136 113 109 111 108 103 96 108 113 114 115 109 97 92 91 97 99 88 84 83 80 77 80 79 79 80 81 82 82 80 80 81 80 81 79 76 75 76 75 75 75
157 147 133 130 130 128 122 136 139 125 117 108 109 107 116 125 119 124 119 110 99 94 91 90 100 110 108 92 84 83 83 80 79 79 81 82 83 80 80 79 77 77 76 75 75 76 75 74 73
350 151 138 137 140 125 128 134 110 118 104 104 130 115 127 136 137 135 128 119 109 100 96 92 91 92 106 107 94 88 85 81 82 81 81 89 100 94 87 88 79 76 75 74 74 74 74 75 73
223 170 145 139 145 130 144 143 119 116 121 121 95 79 108 133 147 147 141 131 115 104 97 91 90 89 88 96 110 112 105 96 108 102 95 105 91 91 95 76 78 77 77 76 76 76 77 83 85
184 149 120 120 141 134 147 146 140 150 143 137 127 116 129 148 158 156 151 141 129 116 104 97 92 89 88 95 109 106 101 101 91 88 92 85 81 77 82 92 83 82 87 88 81 82 93 84 86
113 110 115 127 132 142 145 144 157 159 148 154 153 148 152 161 164 162 153 141 124 119 115 103 97 91 87 95 98 97 94 95 89 86 91 88 90 98 91 101 109 101 100 88 93 96 72 69 65
119 104 120 119 130 148 148 149 154 162 77 127 155 155 162 169 167 166 159 146 141 132 122 112 104 97 93 92 95 102 104 96 88 89 91 89 81 83 86 87 81 79 77 72 67 67 75 73 74
129 115 106 118 130 142 148 154 153 127 55 142 147 159 167 169 171 169 164 156 156 150 147 124 120 101 98 97 102 109 103 97 96 92 99 99 95 90 93 89 79 74 76 84 76 71 68 68 66
116 127 129 132 134 147 157 157 175 138 148 153 161 168 173 175 178 172 170 166 165 164 154 140 142 124 118 116 118 104 102 103 95 97 102 99 98 95 89 86 80 71 68 67 75 77 76 72 66
146 146 146 149 163 166 189 182 179 151 162 163 171 171 176 181 180 180 171 170 171 170 164 147 152 151 139 119 103 104 104 100 98 96 100 101 95 95 93 84 84 81 80 78 69 74 70 76 81
177 191 179 149 171 183 222 213 146 155 173 174 176 172 180 181 187 182 177 175 170 173 171 157 164 168 154 139 128 120 110 100 107 104 99 105 107 99 89 85 84 81 73 73 74 71 77 79 75
200 200 182 162 175 197 229 236 156 176 191 192 185 186 187 181 188 180 181 181 178 181 177 171 169 169 161 150 145 133 123 119 120 116 110 108 109 114 105 88 92 95 85 75 76 66 64 79 80
194 199 197 196 170 212 231 243 200 197 211 212 200 199 198 193 189 181 180 181 179 182 177 169 166 174 159 161 159 142 134 133 129 122 129 111 127 128 114 133 132 117 115 95 93 91 76 73 83
231 230 222 210 173 232 247 258 245 212 216 220 213 207 207 201 191 181 183 183 182 181 179 168 173 169 167 169 180 170 162 154 143 145 140 140 161 164 144 173 150 152 152 145 139 128 138 143 127
219 232 236 205 192 251 265 268 258 222 218 222 219 213 209 201 192 182 186 188 191 185 184 180 177 172 171 179 185 183 169 170 137 158 161 169 186 198 197 210 195 187 183 193 177 195 245 166 238
224 242 255 252 236 237 272 263 230 208 215 219 223 221 215 207 200 189 187 189 192 192 190 187 182 176 173 172 172 171 170 187 178 178 172 189 201 207 229 231 222 215 218 202 207 212 225 235 242
235 242 250 240 248 250 254 281 236 211 209 213 217 215 212 205 202 195 191 191 193 194 193 191 181 178 174 172 185 194 203 208 209 198 187 195 203 208 217 225 229 218 225 212 214 216 224 238 240
264 239 228 240 255 262 240 263 253 201 220 214 211 209 208 204 200 197 195 193 192 189 188 188 180 179 181 189 197 216 222 221 210 199 196 201 197 211 217 225 228 226 222 226 223 222 231 228 249
193 197 204 224 243 250 242 254 262 209 230 218 207 205 204 200 198 200 196 190 190 185 182 185 188 185 185 199 206 215 218 218 209 213 213 215 206 215 216 220 222 225 228 227 227 223 222 241 243
214 231 229 218 218 239 187 248 259 291 258 246 229 208 198 196 194 193 192 189 190 187 184 186 190 191 190 200 208 213 220 222 220 223 220 225 224 218 216 213 221 221 229 229 222 222 225 228 233
221 241 257 270 266 264 208 245 267 331 279 255 241 218 199 194 193 191 191 192 193 192 192 192 193 195 193 201 208 212 215 223 227 231 229 230 234 232 224 216 220 219 223 225 220 232 224 233 232
220 228 266 277 277 273 246 244 258 211 223 223 216 203 199 192 192 192 192 194 194 196 197 199 200 200 198 202 209 213 216 219 227 232 230 231 237 237 230 218 217 215 218 222 219 230 224 231 239
266 229 218 238 255 257 252 250 250 219 236 219 212 209 201 195 194 192 192 196 198 198 201 203 205 205 204 206 210 213 220 223 228 230 229 230 232 229 226 221 220 218 217 217 217 231 237 232 230
195 208 229 239 255 266 267 248 50 265 268 247 230 208 194 193 193 191 191 195 198 198 200 203 209 208 208 209 214 215 218 225 225 227 230 233 231 226 225 222 221 221 222 219 213 226 226 233 231
248 238 231 242 241 251 273 273 91 256 293 282 260 207 191 187 187 189 190 191 194 198 202 206 213 212 211 214 217 221 219 223 226 227 229 230 229 225 225 222 224 223 225 224 222 224 225 230 232